User: anonymous   Login
Location: Hawks Ness
(60.2333°N, 1.1667°W)
Time: 05:30:57
(UTC+00:00)
Language:

Cosmos 1726 - Orbit

View from above orbital plane
View from above orbital plane
View from above satellite
View from above satellite

Ground track
Ground track

The orbit data is extracted from the following two-line orbital elements,

1 16495U 86006A   19341.82273520  .00000631  00000-0  24077-4 0  9996
2 16495  82.4742 243.9347 0011083 265.1241  94.8731 15.24712437853947
Epoch (UTC): 07 December 2019 19:44:44
Eccentricity: 0.0011083
inclination: 82.4742°
perigee height: 484 km
apogee height: 499 km
right ascension of ascending node: 243.9347°
argument of perigee: 265.1241°
revolutions per day: 15.24712437
mean anomaly at epoch: 94.8731°
orbit number at epoch: 85394

The dashed part of the orbit path shows where the satellite is in the earth's shadow,  

DLR